This demonstration page uses our WeatherBlox Daily Observations layout. Learn more.

Left ArrowRight Arrow

39.12711, -84.51439

Hourly Observations for October 28, 2021

Temp ( °F °C ) Dew Point ( °F °C ) Humidity (%) Winds ( mph kmh ) Pressure ( in mb ) Visibility ( mi km ) Precip ( " mm )
12:53 am 00:53 Cloudy 50 10 46 7.8 86 86 E 7 11 29.85 1011 10 16 N/A
1:53 am 01:53 Cloudy 50 10 45 7.2 83 83 E 5 7 29.85 1011 10 16 N/A
2:53 am 02:53 Cloudy 50 10 45 7.2 83 83 ENE 6 9 29.81 1010 10 16 N/A
3:53 am 03:53 Cloudy 49 9.4 46 7.8 90 90 ENE 6 9 29.79 1009 10 16 N/A
4:19 am 04:19 Cloudy 49 9.4 46 7.8 90 90 ENE 6 9 29.78 1008 10 16 N/A
4:53 am 04:53 Cloudy 49 9.4 46 7.8 90 90 VRB 3 6 29.77 1008 10 16 N/A
5:53 am 05:53 Mostly Cloudy 48 8.9 46 7.8 93 93 ENE 5 7 29.74 1007 10 16 N/A
6:53 am 06:53 Cloudy 48 8.9 46 7.8 93 93 ENE 3 6 29.72 1007 10 16 N/A
7:53 am 07:53 Partly Cloudy 48 8.9 46 7.8 93 93 ENE 9 15 29.69 1006 10 16 N/A
8:53 am 08:53 Mostly Sunny 49 9.4 47 8.3 93 93 NE 5 7 29.68 1005 10 16 N/A
9:53 am 09:53 Sunny 50 10 47 8.3 89 89 NE 7 11 29.65 1004 10 16 N/A
10:53 am 10:53 Sunny 54 12.2 48 8.9 80 80 ENE 8 13 29.61 1003 10 16 N/A
11:53 am 11:53 Cloudy with Light Rain 55 12.8 49 9.4 80 80 ENE 5 7 29.60 1002 9 14 0.00 0.00
12:53 pm 12:53 Cloudy with Light Rain 56 13.3 51 10.6 84 84 NE 7 11 29.55 1001 10 16 0.00 0.00
1:53 pm 13:53 Cloudy with Rain 55 12.8 53 11.7 93 93 W 5 7 29.58 1002 2 3 0.11 2.79
2:05 pm 14:05 Cloudy with Rain 55 12.8 53 11.7 93 93 W 6 9 29.59 1002 3 5 0.03 0.76
2:17 pm 14:17 Cloudy with Rain 54 12.2 53 11.7 97 97 WSW 5 7 29.59 1002 2 3 0.08 2.03
2:50 pm 14:50 Cloudy with Heavy Rain 54 12 54 12 100 100 W 3 6 29.58 1002 2 3 0.21 5.33
2:53 pm 14:53 Cloudy with Rain 54 12.2 53 11.7 97 97 N N/A 29.58 1002 2 3 0.23 5.84
3:53 pm 15:53 Cloudy with Rain 54 12.2 54 12.2 100 100 NE 7 11 29.56 1001 2 3 0.10 2.54
4:00 pm 16:00 Cloudy with Light Rain 54 12.2 54 12.2 100 100 NE 6 9 29.57 1001 2 3 0.00 0.00
4:53 pm 16:53 Cloudy with Light Rain 54 12.2 54 12.2 100 100 NE 6 9 29.56 1001 4 6 0.02 0.51
5:53 pm 17:53 Cloudy 55 12.8 55 12.8 100 100 N 3 6 29.55 1001 8 13 0.01 0.25
6:53 pm 18:53 Cloudy 55 12.8 55 12.8 100 100 N N/A 29.55 1001 8 13 0.00 0.00
7:53 pm 19:53 Cloudy with Light Rain 55 12.8 55 12.8 100 100 NNE 5 7 29.56 1001 7 11 0.04 1.02
8:53 pm 20:53 Cloudy 55 12.8 55 12.8 100 100 N N/A 29.55 1001 8 13 0.00 0.00
9:53 pm 21:53 Cloudy with Light Rain 57 13.9 56 13.3 96 96 E 3 6 29.54 1001 8 13 0.01 0.25
10:53 pm 22:53 Cloudy 56 13.3 55 12.8 97 97 NE 7 11 29.53 1000 10 16 0.00 0.00
11:53 pm 23:53 Cloudy with Mist and Fog 54 12.2 54 12.2 100 100 N N/A 29.52 1000 6 10 0.00 0.00

Powered by AerisWeather